GAOFEN-1 04

Last updated on Tue Oct 14 2025 00:02:30 GMT+0000 (Coordinated Universal Time)

1 43262U 18031D 25286.42997343 .00000043 00000+0 13696-4 0 9999 2 43262 98.0898 344.2117 0001070 133.1324 226.9975 14.76441283406277
UTC large
Height (km)
Speed (km/s)
/
Latitude / Longitude
Inclination (degrees)
Orbital Period (minutes)
Azimuth
Elevation
Range (km)
Doppler Factor

Next 0 passes for location: London (51.5072 / 0.1276)

Sorry there are no passes over London.